DW7099 Weather Reports


Display with metric or nautical units.
time (UTC)temp
F
wind
direction
speed
MPH
gust
MPH
rain 1hr
in
rain 24hr
in
rain mn
in
humidity
%
barometer
mb
20260507181121 52 0 0.0 1.0 0.00 0.59 0.59 92 1010.0
20260507180840 52 115 0.0 1.0 0.00 0.59 0.59 92 1010.2
20260507180121 52 0 0.0 1.0 0.00 0.59 0.59 92 1010.1
20260507175621 52 0 0.0 1.0 0.00 0.59 0.59 92 1010.2
20260507175120 52 0 0.0 1.0 0.00 0.59 0.59 91 1010.2
20260507174621 52 190 0.0 1.0 0.00 0.59 0.59 90 1010.2
20260507174121 52 0 0.0 1.0 0.00 0.59 0.59 91 1010.2
20260507173607 52 226 0.0 1.0 0.00 0.59 0.59 92 1010.3
20260507173107 52 91 0.0 2.0 0.00 0.59 0.59 91 1010.5
20260507172606 52 0 0.0 2.0 0.00 0.59 0.59 92 1010.5
20260507172107 53 0 0.0 1.0 0.00 0.59 0.59 91 1010.6
20260507171607 53 0 0.0 1.0 0.00 0.59 0.59 90 1010.4
20260507171052 53 0 0.0 1.0 0.00 0.59 0.59 90 1010.6
20260507170552 53 114 0.0 1.0 0.00 0.59 0.59 91 1010.6
20260507170052 53 91 0.0 1.0 0.00 0.59 0.59 91 1010.6
20260507165552 53 161 0.0 1.0 0.00 0.59 0.59 90 1010.6
20260507165311 53 0 0.0 1.0 0.00 0.59 0.59 89 1010.7
20260507164552 53 0 0.0 1.0 0.00 0.59 0.59 90 1010.9
20260507164052 53 198 0.0 2.0 0.00 0.59 0.59 90 1011.0
20260507163552 53 0 0.0 2.0 0.00 0.59 0.59 88 1011.0
20260507163312 53 104 0.0 1.0 0.00 0.59 0.59 88 1011.0
20260507162552 53 0 0.0 1.0 0.00 0.59 0.59 91 1010.9
20260507162052 53 0 0.0 1.0 0.00 0.59 0.59 89 1011.2
20260507161552 53 0 0.0 1.0 0.00 0.59 0.59 92 1010.9
20260507161315 53 0 0.0 0.0 0.00 0.59 0.59 94 1010.8
20260507160817 53 0 0.0 1.0 0.00 0.59 0.59 94 1010.9
20260507160053 53 190 0.0 1.0 0.00 0.59 0.59 92 1010.9
20260507155553 53 0 0.0 1.0 0.00 0.59 0.59 94 1011.1
20260507155301 53 0 0.0 1.0 0.00 0.59 0.59 94 1011.2
20260507154536 53 106 0.0 1.0 0.00 0.59 0.59 92 1010.8
20260507154036 53 179 0.0 2.0 0.00 0.59 0.59 93 1010.8
20260507153537 54 0 1.0 2.0 0.00 0.59 0.59 92 1010.9
20260507153037 54 217 1.0 1.0 0.00 0.59 0.59 93 1011.0
20260507152537 54 197 1.0 1.0 0.00 0.59 0.59 94 1010.8
20260507152037 54 200 0.0 1.0 0.00 0.59 0.59 95 1010.7
20260507151536 54 0 0.0 1.0 0.00 0.59 0.59 96 1010.9
20260507151256 54 0 0.0 1.0 0.00 0.59 0.59 96 1011.0
20260507150536 54 214 0.0 1.0 0.00 0.59 0.59 96 1010.9
20260507150037 54 0 0.0 1.0 0.00 0.59 0.59 96 1010.9
20260507145757 54 199 0.0 1.0 0.00 0.59 0.59 96 1010.9
20260507145037 54 0 0.0 1.0 0.00 0.59 0.59 96 1010.9
20260507144524 54 206 0.0 1.0 0.00 0.60 0.59 95 1010.8
20260507144247 54 0 0.0 1.0 0.00 0.60 0.59 95 1010.7
20260507143509 54 202 0.0 1.0 0.00 0.60 0.59 95 1010.5
20260507143009 54 0 0.0 1.0 0.00 0.60 0.59 96 1010.5
20260507142509 54 202 0.0 1.0 0.00 0.60 0.59 96 1010.8
20260507142010 55 0 0.0 1.0 0.00 0.61 0.59 96 1010.9
20260507141509 55 0 0.0 1.0 0.00 0.61 0.59 96 1010.9
20260507141010 55 186 0.0 1.0 0.00 0.61 0.59 96 1010.8
20260507140509 55 0 0.0 1.0 0.00 0.61 0.59 97 1010.9
20260507140010 55 213 0.0 1.0 0.00 0.61 0.59 96 1010.9
20260507135455 56 217 0.0 1.0 0.00 0.61 0.59 97 1010.9
20260507134955 56 0 0.0 1.0 0.00 0.61 0.59 97 1011.0
20260507134455 56 0 1.0 1.0 0.00 0.61 0.59 98 1011.0
20260507133938 56 205 1.0 1.0 0.00 0.61 0.59 98 1010.9
20260507133439 56 182 1.0 2.0 0.00 0.61 0.59 98 1010.9
20260507132940 56 229 1.0 2.0 0.00 0.61 0.59 99 1011.0
20260507132439 56 211 1.0 1.0 0.00 0.61 0.59 99 1010.5
20260507131939 56 196 0.0 1.0 0.00 0.61 0.59 99 1010.5
20260507131439 56 198 0.0 1.0 0.00 0.61 0.59 99 1010.4
20260507131201 56 208 0.0 1.0 0.00 0.61 0.59 99 1010.4
20260507130438 55 0 0.0 1.0 0.00 0.61 0.59 99 1010.4
20260507125939 55 0 0.0 1.0 0.00 0.61 0.59 99 1010.4
20260507125440 55 229 0.0 1.0 0.00 0.61 0.59 99 1010.4
20260507124938 55 184 0.0 1.0 0.00 0.61 0.59 99 1010.6
20260507124438 55 0 0.0 1.0 0.00 0.61 0.59 99 1010.7
20260507123939 55 208 0.0 1.0 0.00 0.61 0.59 99 1010.7
20260507123438 55 0 0.0 1.0 0.00 0.61 0.59 99 1010.7
20260507122939 55 0 0.0 1.0 0.00 0.61 0.59 99 1010.6
20260507122426 55 206 0.0 1.0 0.00 0.61 0.59 99 1010.6
20260507121911 55 66 0.0 1.0 0.00 0.61 0.59 99 1010.4
20260507121410 55 217 0.0 1.0 0.00 0.61 0.59 99 1010.3
20260507120911 55 0 0.0 1.0 0.00 0.61 0.59 99 1010.4
20260507120411 55 0 0.0 1.0 0.00 0.61 0.59 99 1010.3
20260507115856 55 0 0.0 1.0 0.00 0.61 0.59 99 1010.5
20260507115619 55 203 0.0 1.0 0.01 0.61 0.59 99 1010.3
20260507115114 55 199 0.0 1.0 0.01 0.61 0.59 98 1010.5
20260507114357 55 212 0.0 1.0 0.01 0.61 0.59 99 1010.8
20260507113857 55 0 0.0 1.0 0.01 0.61 0.59 99 1010.7
20260507113357 55 0 0.0 1.0 0.01 0.61 0.59 98 1010.4
20260507112856 55 203 0.0 1.0 0.02 0.61 0.59 98 1010.5
20260507112356 55 194 0.0 1.0 0.04 0.61 0.59 98 1010.5
20260507111856 55 0 0.0 1.0 0.07 0.61 0.59 98 1010.3
20260507111356 55 0 0.0 1.0 0.09 0.61 0.59 98 1010.0
20260507110856 55 0 0.0 1.0 0.11 0.61 0.59 98 1009.9
20260507110357 55 190 0.0 1.0 0.15 0.61 0.59 98 1010.3
20260507110059 55 185 0.0 1.0 0.19 0.60 0.58 98 1010.4
20260507105340 55 0 0.0 1.0 0.28 0.60 0.58 98 1010.2
20260507104841 55 205 0.0 1.0 0.33 0.60 0.58 98 1009.9
20260507104341 55 0 0.0 1.0 0.38 0.60 0.58 98 1009.9
20260507103841 55 0 0.0 1.0 0.41 0.60 0.58 98 1010.0
20260507103341 55 0 0.0 1.0 0.46 0.59 0.57 97 1009.9
20260507102841 55 145 0.0 1.0 0.52 0.59 0.57 97 1010.0
20260507102340 56 107 0.0 2.0 0.52 0.56 0.54 97 1010.0
20260507101328 56 208 0.0 1.0 0.49 0.51 0.49 97 1009.8
20260507101040 57 229 0.0 2.0 0.46 0.48 0.46 97 1009.6
20260507100312 57 0 0.0 2.0 0.43 0.45 0.43 97 1009.7
20260507095813 58 0 1.0 2.0 0.37 0.39 0.37 96 1009.9
20260507095259 58 217 1.0 2.0 0.28 0.30 0.28 96 1009.8
20260507094757 59 171 1.0 2.0 0.24 0.26 0.24 95 1009.6
20260507094258 60 152 1.0 2.0 0.19 0.21 0.19 95 1009.3
20260507093742 62 152 1.0 2.0 0.16 0.18 0.16 94 1009.4
20260507093242 64 206 1.0 2.0 0.09 0.11 0.09 93 1009.6
20260507092742 65 188 1.0 2.0 0.05 0.07 0.05 95 1009.4
20260507092242 66 73 0.0 2.0 0.01 0.03 0.01 96 1009.0
20260507091742 66 165 0.0 1.0 0.00 0.02 0.00 96 1008.9
20260507091243 66 0 0.0 0.0 0.00 0.02 0.00 95 1009.1
20260507090742 66 0 0.0 1.0 0.00 0.02 0.00 95 1009.1
20260507090242 66 0 0.0 1.0 0.00 0.02 0.00 95 1009.0
20260507085742 66 0 0.0 0.0 0.00 0.02 0.00 94 1009.1
20260507085242 66 0 0.0 0.0 0.00 0.02 0.00 94 1008.9
20260507084504 67 137 0.0 1.0 0.00 0.02 0.00 94 1009.1
20260507083742 67 0 0.0 0.0 0.00 0.02 0.00 94 1009.0
20260507083243 67 0 0.0 0.0 0.00 0.02 0.00 94 1008.9
20260507082743 67 0 0.0 1.0 0.00 0.02 0.00 93 1008.8
20260507082242 67 0 0.0 1.0 0.00 0.02 0.00 93 1008.8
20260507081742 67 144 1.0 1.0 0.00 0.02 0.00 93 1008.5
20260507081242 67 146 1.0 1.0 0.00 0.02 0.00 92 1008.4
20260507080743 67 138 0.0 1.0 0.00 0.02 0.00 92 1008.5
20260507080243 67 0 0.0 1.0 0.00 0.02 0.00 92 1008.3
20260507075743 67 0 0.0 2.0 0.00 0.02 0.00 92 1008.2
20260507075242 67 122 0.0 2.0 0.00 0.02 0.00 92 1008.3
20260507074730 67 40 0.0 1.0 0.00 0.02 0.00 91 1007.8
20260507074229 67 0 0.0 1.0 0.00 0.02 0.00 91 1007.9
20260507073729 67 0 0.0 1.0 0.00 0.02 0.00 91 1008.0
20260507073215 67 134 0.0 2.0 0.00 0.02 0.00 91 1008.1
20260507072714 67 0 0.0 2.0 0.00 0.02 0.00 91 1008.2
20260507072159 67 0 0.0 1.0 0.00 0.02 0.00 91 1008.3
20260507071644 67 131 0.0 2.0 0.00 0.02 0.00 91 1008.4
20260507071144 67 0 0.0 2.0 0.00 0.02 0.00 91 1008.6
20260507070645 67 33 0.0 2.0 0.00 0.02 0.00 91 1008.8
20260507070144 67 0 0.0 1.0 0.00 0.02 0.00 91 1008.9
20260507065644 67 76 0.0 1.0 0.00 0.02 0.00 91 1008.6
20260507065144 67 0 1.0 1.0 0.00 0.02 0.00 91 1008.7
20260507064904 67 58 1.0 2.0 0.00 0.02 0.00 91 1008.5
20260507064144 67 43 1.0 2.0 0.00 0.02 0.00 91 1008.5
20260507063631 67 98 0.0 1.0 0.00 0.02 0.00 90 1008.5
20260507063132 67 49 0.0 1.0 0.00 0.02 0.00 90 1008.5
20260507062616 67 62 0.0 2.0 0.00 0.02 0.00 90 1008.4
20260507062116 67 0 0.0 2.0 0.00 0.02 0.00 90 1008.4
20260507061601 67 0 0.0 2.0 0.00 0.02 0.00 90 1008.4
20260507061045 67 0 0.0 1.0 0.00 0.02 0.00 89 1008.3
20260507060545 67 0 0.0 1.0 0.00 0.02 0.00 89 1008.3
20260507055807 67 0 0.0 1.0 0.00 0.02 0.00 88 1008.4
20260507055045 67 0 0.0 1.0 0.00 0.02 0.00 89 1008.5
20260507054545 68 0 1.0 2.0 0.00 0.02 0.00 89 1008.5
20260507054046 68 94 0.0 3.0 0.00 0.02 0.00 89 1008.6
20260507053545 68 350 0.0 3.0 0.00 0.02 0.00 89 1008.5
20260507053045 68 0 0.0 1.0 0.00 0.02 0.00 89 1008.7
20260507052753 68 32 0.0 2.0 0.00 0.02 0.00 88 1008.7
20260507052031 68 0 0.0 2.0 0.00 0.02 0.00 88 1008.8
20260507051517 68 353 0.0 1.0 0.00 0.02 0.00 88 1008.8
20260507051016 68 0 0.0 1.0 0.00 0.02 0.00 88 1008.9
20260507050516 68 88 0.0 1.0 0.00 0.02 0.00 87 1009.0
20260507050017 68 0 0.0 1.0 0.00 0.02 0.00 87 1009.3
20260507045503 68 0 0.0 1.0 0.00 0.02 0.00 87 1009.5
20260507045003 68 0 0.0 2.0 0.00 0.02 0.00 86 1009.7
20260507044502 68 41 1.0 2.0 0.00 0.02 0.00 86 1009.9
20260507044001 68 84 0.0 1.0 0.00 0.02 0.00 86 1009.9
20260507043502 68 50 0.0 1.0 0.00 0.02 0.00 85 1009.9
20260507042946 68 0 0.0 1.0 0.00 0.02 0.00 85 1009.9
20260507042713 68 70 0.0 1.0 0.00 0.02 0.00 85 1009.9
20260507041946 68 84 0.0 1.0 0.00 0.02 0.00 85 1009.7
20260507041711 68 0 0.0 1.0 0.00 0.02 0.00 85 1009.7
20260507040946 68 284 0.0 1.0 0.00 0.02 0.00 85 1009.7
20260507040433 68 55 0.0 1.0 0.00 0.02 0.00 85 1009.7
20260507035918 68 38 0.0 1.0 0.00 0.02 0.02 85 1009.6
20260507035418 68 0 0.0 1.0 0.00 0.02 0.02 85 1009.5
20260507034917 68 58 0.0 1.0 0.00 0.02 0.02 85 1009.4
20260507033847 68 0 0.0 2.0 0.00 0.02 0.02 86 1009.6
20260507033347 67 0 0.0 2.0 0.00 0.02 0.02 87 1009.5
20260507032847 67 97 0.0 1.0 0.00 0.02 0.02 88 1009.4
20260507032347 67 62 0.0 1.0 0.00 0.02 0.02 88 1009.2
20260507031847 67 69 0.0 1.0 0.00 0.02 0.02 88 1009.2
20260507031347 67 66 0.0 1.0 0.00 0.02 0.02 88 1009.1
20260507030846 67 79 0.0 1.0 0.00 0.02 0.02 89 1009.2
20260507030612 67 98 0.0 1.0 0.00 0.02 0.02 89 1009.3
20260507025847 67 0 0.0 1.0 0.00 0.02 0.02 89 1009.2
20260507025347 67 0 0.0 1.0 0.00 0.02 0.02 89 1009.0
20260507024847 67 0 0.0 1.0 0.00 0.02 0.02 89 1009.0
20260507024347 67 0 0.0 1.0 0.00 0.02 0.02 89 1009.0
20260507023847 67 0 0.0 1.0 0.00 0.02 0.02 89 1009.2
20260507023602 67 0 0.0 1.0 0.00 0.02 0.02 89 1009.3
20260507022834 67 0 0.0 1.0 0.00 0.02 0.02 89 1009.3
20260507022334 67 0 0.0 1.0 0.00 0.02 0.02 89 1009.4
20260507021834 67 301 0.0 1.0 0.00 0.02 0.02 89 1009.4
20260507021334 67 0 0.0 1.0 0.00 0.02 0.02 89 1009.3
20260507021052 66 0 0.0 1.0 0.00 0.02 0.02 90 1009.5
20260507020334 66 19 0.0 1.0 0.00 0.02 0.02 90 1009.6
20260507015834 66 0 0.0 2.0 0.00 0.02 0.02 90 1009.8
20260507014820 66 89 0.0 1.0 0.00 0.02 0.02 90 1009.7
20260507014320 66 0 0.0 1.0 0.00 0.02 0.02 90 1009.7
20260507013805 66 43 0.0 1.0 0.00 0.02 0.02 90 1009.7
20260507013304 66 0 0.0 0.0 0.00 0.02 0.02 90 1009.6
20260507012804 66 0 0.0 0.0 0.00 0.02 0.02 90 1009.4
20260507012306 66 0 0.0 1.0 0.00 0.02 0.02 90 1009.4
20260507012031 66 0 0.0 1.0 0.00 0.02 0.02 89 1009.3
20260507011507 66 0 0.0 0.0 0.00 0.02 0.02 89 1009.4
20260507010511 67 0 0.0 0.0 0.00 0.02 0.02 89 1009.4
20260507005748 67 0 0.0 1.0 0.00 0.02 0.02 89 1009.4
20260507005249 67 0 0.0 1.0 0.00 0.02 0.02 88 1009.3
20260507004749 67 0 0.0 1.0 0.00 0.02 0.02 88 1009.4
20260507004249 68 0 0.0 1.0 0.00 0.02 0.02 87 1009.2
20260507003748 68 0 0.0 1.0 0.00 0.02 0.02 86 1009.4
20260507003248 68 0 0.0 1.0 0.00 0.02 0.02 86 1009.4
20260507002749 68 0 0.0 1.0 0.00 0.02 0.02 85 1009.4
20260507002249 69 0 0.0 0.0 0.00 0.02 0.02 85 1009.4
20260507001749 69 0 0.0 0.0 0.00 0.02 0.02 84 1009.4
20260507001249 69 0 0.0 0.0 0.00 0.02 0.02 84 1009.5
20260507000736 69 84 0.0 1.0 0.00 0.02 0.02 84 1009.6
20260507000502 69 352 0.0 1.0 0.00 0.02 0.02 83 1009.6
20260506235721 69 83 0.0 1.0 0.00 0.02 0.02 83 1009.7
20260506234221 70 0 0.0 2.0 0.00 0.02 0.02 82 1009.3
20260506233944 70 27 0.0 2.0 0.00 0.02 0.02 82 1009.2
20260506233221 70 113 0.0 1.0 0.00 0.02 0.02 82 1009.1
20260506232721 70 0 0.0 1.0 0.00 0.02 0.02 81 1009.0
20260506232221 70 0 0.0 2.0 0.00 0.02 0.02 81 1009.0
20260506231721 70 0 1.0 2.0 0.00 0.02 0.02 82 1009.2
20260506231221 70 0 0.0 1.0 0.00 0.02 0.02 81 1009.2
20260506230722 70 77 0.0 1.0 0.00 0.02 0.02 81 1009.2
20260506230221 70 73 0.0 1.0 0.00 0.02 0.02 80 1009.2
20260506225722 70 0 0.0 1.0 0.00 0.02 0.02 80 1009.1
20260506225207 71 0 0.0 1.0 0.00 0.02 0.02 79 1009.2
20260506224915 71 0 0.0 1.0 0.00 0.02 0.02 80 1009.2
20260506224150 71 90 0.0 1.0 0.00 0.02 0.02 79 1009.2
20260506223651 71 42 0.0 3.0 0.00 0.02 0.02 79 1009.2
20260506223151 71 0 0.0 3.0 0.00 0.02 0.02 79 1009.1
20260506222651 71 106 0.0 1.0 0.00 0.02 0.02 78 1009.1
20260506222151 71 98 0.0 1.0 0.00 0.02 0.02 78 1009.2
20260506221651 71 37 1.0 1.0 0.00 0.02 0.02 78 1009.1
20260506221151 71 341 1.0 2.0 0.00 0.02 0.02 77 1009.1
20260506220651 71 310 1.0 2.0 0.00 0.02 0.02 77 1009.1
20260506220151 71 323 1.0 2.0 0.00 0.02 0.02 76 1009.1
20260506215651 71 136 1.0 2.0 0.00 0.02 0.02 76 1009.1
20260506215151 71 9 1.0 2.0 0.00 0.02 0.02 76 1009.0
20260506214652 71 108 1.0 2.0 0.00 0.02 0.02 76 1009.0
20260506214139 71 323 1.0 2.0 0.00 0.02 0.02 75 1009.0
20260506213358 71 0 1.0 2.0 0.00 0.02 0.02 76 1009.3
20260506212638 71 25 1.0 2.0 0.00 0.02 0.02 75 1009.3
20260506212138 71 283 1.0 2.0 0.00 0.02 0.02 74 1009.4
20260506211639 71 64 1.0 2.0 0.00 0.02 0.02 76 1009.5
20260506211139 71 54 1.0 2.0 0.00 0.02 0.02 75 1009.3
20260506210639 70 69 1.0 2.0 0.00 0.02 0.02 76 1009.2
20260506210138 70 0 1.0 2.0 0.00 0.02 0.02 76 1009.2
20260506205638 70 15 1.0 2.0 0.00 0.02 0.02 77 1009.1
20260506205124 70 115 1.0 2.0 0.00 0.02 0.02 78 1009.1
20260506204609 70 94 1.0 2.0 0.00 0.02 0.02 78 1009.3
20260506204109 70 176 1.0 2.0 0.00 0.02 0.02 78 1009.3
20260506203609 70 39 1.0 2.0 0.00 0.02 0.02 78 1009.2
20260506203109 70 293 1.0 2.0 0.00 0.02 0.02 78 1009.4
20260506202553 70 79 1.0 3.0 0.00 0.02 0.02 77 1009.3
20260506202319 70 94 1.0 3.0 0.00 0.02 0.02 78 1009.3
20260506201553 70 78 1.0 2.0 0.00 0.02 0.02 78 1009.1
20260506200553 70 58 1.0 3.0 0.00 0.02 0.02 78 1009.0
20260506200053 70 260 1.0 3.0 0.00 0.02 0.02 79 1008.9
20260506195553 70 266 2.0 3.0 0.00 0.02 0.02 78 1008.6
20260506195311 69 202 1.0 3.0 0.00 0.02 0.02 78 1008.4
20260506194053 69 294 1.0 3.0 0.00 0.02 0.02 79 1008.4
20260506193552 69 47 1.0 2.0 0.00 0.02 0.02 80 1008.4
20260506193053 69 92 1.0 2.0 0.00 0.02 0.02 81 1008.6
20260506192540 69 324 1.0 2.0 0.00 0.02 0.02 80 1008.8
20260506191540 68 0 1.0 2.0 0.00 0.02 0.02 81 1008.9
20260506191040 68 293 1.0 4.0 0.00 0.02 0.02 81 1009.0
20260506190526 68 235 1.0 4.0 0.00 0.02 0.02 82 1009.1
20260506190026 68 304 1.0 4.0 0.00 0.02 0.02 82 1009.0
20260506185525 67 215 1.0 3.0 0.00 0.02 0.02 82 1009.2
20260506185247 67 18 2.0 3.0 0.00 0.02 0.02 83 1009.4
20260506184526 67 299 2.0 3.0 0.00 0.02 0.02 84 1009.7
20260506184026 67 258 1.0 3.0 0.00 0.02 0.02 84 1010.0
20260506183525 66 212 1.0 3.0 0.00 0.02 0.02 85 1010.1
20260506183026 66 80 0.0 2.0 0.00 0.02 0.02 87 1010.2
20260506182525 66 64 0.0 2.0 0.00 0.02 0.02 89 1010.4
20260506182025 65 285 0.0 1.0 0.00 0.02 0.02 89 1010.5
20260506181526 65 0 1.0 2.0 0.00 0.02 0.02 89 1010.7